TimePST,TemperatureF,Dew PointF,Humidity,Sea Level PressureIn,VisibilityMPH,Wind Direction,Wind SpeedMPH,Gust SpeedMPH,PrecipitationIn,Events,Conditions,WindDirDegrees,DateUTC
10:35 AM,42.8,35.6,76,29.72,10.0,Calm,Calm,-,N/A,,Overcast,0,2012-12-23 18:35:00
10:55 AM,44.6,35.6,71,29.71,10.0,Calm,Calm,-,N/A,,Overcast,0,2012-12-23 18:55:00
11:15 AM,42.8,37.4,81,29.69,10.0,NNE,5.8,-,N/A,,Overcast,20,2012-12-23 19:15:00
11:35 AM,42.8,37.4,81,29.68,10.0,NE,6.9,-,N/A,,Overcast,50,2012-12-23 19:35:00
11:55 AM,44.6,37.4,76,29.67,10.0,NE,5.8,-,N/A,,Overcast,50,2012-12-23 19:55:00
12:15 PM,44.6,35.6,71,29.67,10.0,NE,3.5,-,N/A,,Mostly Cloudy,50,2012-12-23 20:15:00
12:35 PM,44.6,37.4,76,29.66,10.0,Calm,Calm,-,N/A,,Partly Cloudy,0,2012-12-23 20:35:00
12:55 PM,44.6,37.4,76,29.66,10.0,Calm,Calm,-,N/A,,Scattered Clouds,0,2012-12-23 20:55:00
1:15 PM,44.6,37.4,76,29.65,10.0,Calm,Calm,-,N/A,,Mostly Cloudy,0,2012-12-23 21:15:00
1:35 PM,44.6,37.4,76,29.65,10.0,Calm,Calm,-,N/A,,Overcast,0,2012-12-23 21:35:00
1:55 PM,44.6,37.4,76,29.65,10.0,Calm,Calm,-,N/A,,Overcast,0,2012-12-23 21:55:00
2:15 PM,44.6,37.4,76,29.64,10.0,Calm,Calm,-,N/A,,Overcast,0,2012-12-23 22:15:00
2:35 PM,44.6,37.4,76,29.64,10.0,Calm,Calm,-,N/A,,Mostly Cloudy,0,2012-12-23 22:35:00
2:55 PM,44.6,37.4,76,29.64,10.0,Calm,Calm,-,N/A,,Mostly Cloudy,0,2012-12-23 22:55:00
3:15 PM,42.8,37.4,81,29.64,10.0,Calm,Calm,-,N/A,,Mostly Cloudy,0,2012-12-23 23:15:00
3:35 PM,42.8,37.4,81,29.65,10.0,Calm,Calm,-,N/A,,Overcast,0,2012-12-23 23:35:00
3:55 PM,42.8,37.4,81,29.65,10.0,Calm,Calm,-,N/A,,Overcast,0,2012-12-23 23:55:00
4:15 PM,42.8,37.4,81,29.65,10.0,NNW,4.6,-,N/A,,Overcast,340,2012-12-24 00:15:00
4:35 PM,42.8,35.6,76,29.66,10.0,NNE,4.6,-,N/A,,Overcast,30,2012-12-24 00:35:00
4:55 PM,42.8,35.6,76,29.67,10.0,North,4.6,-,N/A,,Overcast,360,2012-12-24 00:55:00
5:15 PM,42.8,37.4,81,29.67,10.0,Calm,Calm,-,N/A,,Overcast,0,2012-12-24 01:15:00
5:35 PM,42.8,35.6,76,29.67,10.0,NNW,5.8,-,N/A,,Overcast,330,2012-12-24 01:35:00
5:55 PM,41.0,37.4,87,29.68,9.0,Calm,Calm,-,N/A,,Overcast,0,2012-12-24 01:55:00
6:15 PM,41.0,37.4,87,29.68,10.0,Calm,Calm,-,N/A,,Overcast,0,2012-12-24 02:15:00
6:55 PM,39.2,37.4,93,29.70,10.0,Calm,Calm,-,N/A,,Overcast,0,2012-12-24 02:55:00
7:15 PM,39.2,37.4,93,29.70,9.0,Calm,Calm,-,N/A,,Overcast,0,2012-12-24 03:15:00
7:35 PM,39.2,37.4,93,29.72,9.0,Calm,Calm,-,N/A,,Overcast,0,2012-12-24 03:35:00
7:55 PM,39.2,37.4,93,29.72,4.0,Calm,Calm,-,N/A,,Overcast,0,2012-12-24 03:55:00
8:15 PM,39.2,37.4,93,29.73,5.0,Calm,Calm,-,N/A,,Overcast,0,2012-12-24 04:15:00
8:35 PM,39.2,37.4,93,29.74,5.0,Calm,Calm,-,0.01,,Overcast,0,2012-12-24 04:35:00
8:55 PM,39.2,37.4,93,29.75,5.0,Calm,Calm,-,0.01,,Overcast,0,2012-12-24 04:55:00
9:15 PM,39.2,37.4,93,29.75,7.0,Calm,Calm,-,0.01,,Overcast,0,2012-12-24 05:15:00
9:35 PM,39.2,37.4,93,29.76,8.0,Calm,Calm,-,0.01,,Overcast,0,2012-12-24 05:35:00
9:55 PM,37.4,35.6,93,29.77,10.0,South,6.9,-,0.01,,Overcast,180,2012-12-24 05:55:00
10:15 PM,37.4,35.6,93,29.78,10.0,South,3.5,-,N/A,,Overcast,180,2012-12-24 06:15:00
10:35 PM,37.4,35.6,93,29.79,10.0,South,3.5,-,N/A,,Overcast,180,2012-12-24 06:35:00
10:55 PM,37.4,35.6,93,29.80,10.0,SSE,6.9,-,N/A,,Overcast,160,2012-12-24 06:55:00
11:15 PM,37.4,33.8,87,29.81,10.0,South,4.6,-,N/A,,Overcast,170,2012-12-24 07:15:00
11:35 PM,37.4,33.8,87,29.82,10.0,SSE,6.9,-,N/A,,Overcast,150,2012-12-24 07:35:00
11:55 PM,37.4,33.8,87,29.83,10.0,SSE,5.8,-,N/A,,Overcast,160,2012-12-24 07:55:00